This is the latest recevied weather packets stored in our database for station/object K8WEH. If no packets are shown the sender has not sent any weather packets the latest 10 day(s).
| Time | Temp. | Humidity | Pressure | Rain* | Wind** | Luminosity | Snow |
|---|---|---|---|---|---|---|---|
| 1777745709 | 12.22° C | 46% | 1019.1 hPa | 0 mm | - | - | - |
| 1777745408 | 12.22° C | 49% | 1019 hPa | 0 mm | - | - | - |
| 1777745107 | 11.67° C | 49% | 1019.1 hPa | 0 mm | - | - | - |
| 1777744808 | 11.11° C | 51% | 1019 hPa | 0 mm | - | - | - |
| 1777744506 | 10.56° C | 51% | 1019.1 hPa | 0 mm | - | - | - |
| 1777744207 | 11.11° C | 47% | 1019.1 hPa | 0 mm | - | - | - |
| 1777743905 | 11.11° C | 46% | 1019.1 hPa | 0 mm | - | - | - |
| 1777743606 | 11.11° C | 48% | 1019.2 hPa | 0 mm | - | - | - |
| 1777743306 | 11.11° C | 47% | 1019.2 hPa | 0 mm | - | - | - |
| 1777743013 | 11.11° C | 48% | 1019.2 hPa | 0 mm | - | - | - |
| 1777742704 | 11.11° C | 50% | 1019.2 hPa | 0 mm | - | - | - |
| 1777742403 | 11.11° C | 50% | 1019.2 hPa | 0 mm | - | - | - |
| 1777742103 | 10.56° C | 49% | 1019.2 hPa | 0 mm | - | - | - |
| 1777741802 | 10.56° C | 48% | 1019.1 hPa | 0 mm | - | - | - |
| 1777741502 | 10.56° C | 49% | 1019.2 hPa | 0 mm | - | - | - |
| 1777741201 | 10.56° C | 53% | 1019.2 hPa | 0 mm | - | - | - |
| 1777740901 | 10° C | 55% | 1019.4 hPa | 0 mm | - | - | - |
| 1777740600 | 10° C | 52% | 1019.5 hPa | 0 mm | - | - | - |
| 1777740385 | 10° C | 52% | 1019.5 hPa | 0 mm | - | - | - |
| 1777740060 | 10° C | 56% | 1019.5 hPa | 0 mm | - | - | - |
| 1777740001 | 10° C | 57% | 1019.5 hPa | 0 mm | - | - | - |
| 1777739759 | 10° C | 56% | 1019.5 hPa | 0 mm | - | - | - |
| 1777739463 | 10° C | 56% | 1019.4 hPa | 0 mm | - | - | - |
| 1777739158 | 10.56° C | 56% | 1019.4 hPa | 0 mm | - | - | - |
| 1777738857 | 10.56° C | 56% | 1019.5 hPa | 0 mm | - | - | - |
* Rain latest hour (hover to see other rain measurements)
** Current wind speed in m/s (hover to see current wind gust speed)